Tracking 20626 objects as of 8-Apr-2020
HD Live streaming from Space Station
objects crossing your sky now

CLUSTER II-FM7

Track CLUSTER II-FM7 now!
CLUSTER II-FM7 is classified as:


NORAD ID: 26411
Int'l Code: 2000-041B
Perigee: 25,903.9 km
Apogee: 107,043.4 km
Inclination: 131.6 °
Period: 3,261.0 minutes
Semi major axis: 72844 km
RCS: 1.5887 m2 (large)
Launch date: July 16, 2000
Source: European Space Agency (ESA)
Launch site: TYURATAM MISSILE AND SPACE COMPLEX (TTMTR)
aabbcc
Your satellite tracking list
Your tracking list is empty




NASA's NSSDC Master Catalog

Two Line Element Set (TLE):
1 26411U 00041B   20101.56323152  .00000016  00000-0  00000+0 0  9996
2 26411 131.5503 342.3655 5569346 187.7188   0.8152  0.44157697 21350
Source of the keplerian elements: AFSPC